Regional Weather Roundup
Issued by NWS Sterling, VA

Home | Current Version | Previous Version | Graphics & Text | Print | Product List | Glossary On
Versions: 1 2 3 4 5 6 7 8 9 10 11 12 13 14 15 16 17 18 19 20 21 22 23 24 25 26 27 28 29 30 31 32 33 34 35 36 37 38 39 40 41 42 43 44 45 46 47 48 49 50
000
ASUS41 KLWX 162310
RWRLWX

REGIONAL WEATHER ROUNDUP
NATIONAL WEATHER SERVICE BALTIMORE MD/WASHINGTON DC
600 PM EST TUE DEC 16 2014

Note: "FAIR" indicates few or no clouds below 12,000 feet
with no significant weather and/or obstructions to visibility.
 TC=TEMPERATURE CELSIUS

 * =Non NWS site. Station does not report precipitation (e.g. rain,
    snow, etc.), thunder, or fog.

DCZ001-MDZ009-015-VAZ040>042-051-053>054-170000-
WASHINGTON METRO

CITY           SKY/WX    TMP DP  RH WIND       PRES   REMARKS
WASHINGTON NAT DRIZZLE   48  45  87 SW3       29.90R
DULLES         CLOUDY    43  43 100 SW3       29.88R FOG
ANDREWS AFB    CLOUDY    47  46  96 SW3       29.88R
FT BELVOIR     CLOUDY    45  45 100 CALM      29.89R FOG
QUANTICO       CLOUDY    45  43  93 CALM      29.90R FOG
COLLEGE PARK*  CLOUDY    46  45  93 CALM      29.88R
LEESBURG*      FOG       45  45 100 MISG      29.89R VSB 1/2
MANASSAS*      FOG       45  45 100 CALM      29.88R VSB 1
GAITHERSBURG*  CLOUDY    45  43  93 CALM      29.91R

$$

MDZ006>007-011-014-170000-
BALTIMORE METRO

CITY           SKY/WX    TMP DP  RH WIND       PRES   REMARKS
BWI AIRPORT    DRIZZLE   46  44  93 CALM      29.88R FOG
MD SCIENCE CTR   N/A     44  44 100 MISG      29.90R
MARTIN STATE   CLOUDY    46  46 100 CALM      29.91R FOG
ANNAPOLIS      CLOUDY    46  44  93 S3        29.89R FOG
FORT MEADE*    CLOUDY    45  43  93 CALM      29.90R

$$

MDZ012-015-019>023-170000-
MARYLAND EASTERN SHORE

CITY           SKY/WX    TMP DP  RH WIND       PRES   REMARKS
OCEAN CITY     CLOUDY    50  48  93 CALM      29.90R FOG
SALISBURY      CLOUDY    52  49  89 CALM      29.88F
BAY BRIDGE AP*   N/A     45  45 100 W5        29.89R FOG
CAMBRIDGE*     CLOUDY    52  48  87 S6        29.88R
EASTON*        CLOUDY    50  50 100 S8        29.91S FOG

$$

MDZ017>025-170000-
SOUTHERN MARYLAND

CITY           SKY/WX    TMP DP  RH WIND       PRES   REMARKS
PATUXENT RIVER CLOUDY    48  46  93 S3        29.88R FOG
ST INIGOES     CLOUDY    49  45  86 S6        29.88R
LEONARDTOWN*   CLOUDY    46  45  93 S5          N/A

$$

MDZ003>005-170000-
NORTH CENTRAL MARYLAND

CITY           SKY/WX    TMP DP  RH WIND       PRES   REMARKS
FREDERICK*     FOG       43  39  87 CALM      29.91R VSB 1
HAGERSTOWN APT CLOUDY    43  41  93 W5        29.88R FOG
WESTMINSTER*   CLOUDY    45  43  93 S5        29.86S FOG

$$

MDZ501>502-170000-
WESTERN MARYLAND

CITY           SKY/WX    TMP DP  RH WIND       PRES   REMARKS
OAKLAND*       CLOUDY    41 N/A N/A W10G18    29.83R
CUMBERLAND*    CLOUDY    41  41 100 CALM      29.91R

$$

VAZ025>031-170000-
SHENANDOAH VALLEY

CITY           SKY/WX    TMP DP  RH WIND       PRES   REMARKS
WINCHESTER*    CLOUDY    43  37  81 N5        29.88R HAZE
FRONT ROYAL*   CLOUDY    41  39  93 CALM      29.87R
LURAY*         CLOUDY    45  45 100 NE5       29.86R
NEW MARKET*    CLOUDY    45  43  95 CALM      29.86R
STAUNTON*      CLOUDY    49  43  80 W3        29.86R
WAYNESBORO*    CLOUDY    51  43  73 W5        29.86R

$$

WVZ021-048>050-054>055-170000-
EASTERN WEST VIRGINIA PANHANDLE

CITY           SKY/WX    TMP DP  RH WIND       PRES   REMARKS
MARTINSBURG    LGT RAIN  43  39  86 NW3       29.88R FOG
PETERSBURG*    DRIZZLE   41  41 100 CALM      29.89R

$$

VAZ036>039-050-170000-
CENTRAL FOOTHILLS

CITY           SKY/WX    TMP DP  RH WIND       PRES   REMARKS
CHARLOTTESVILL CLOUDY    45  43  93 CALM      29.87R FOG
CULPEPER*      CLOUDY    46  45  93 CALM      29.88R FOG
ORANGE*        CLOUDY    45  45 100 S3        29.89R FOG
GORDONSVILLE*  CLOUDY    44  43  98 SW5       29.88R FOG
WARRENTON*     FOG       46  46 100 CALM      29.88R VSB 1/2

$$

VAZ055>057-170000-
NORTH AND CENTRAL PIEDMONT

CITY           SKY/WX    TMP DP  RH WIND       PRES   REMARKS
FREDERICKSBRG* CLOUDY    48  48 100 CALM      29.88R FOG
STAFFORD*      CLOUDY    46  32  58 CALM      29.92R FOG

$$

NCZ024-NYZ072-PAZ021-071-VAZ022-071-170000-
OTHER REGIONAL OBSERVATIONS

CITY           SKY/WX    TMP DP  RH WIND       PRES   REMARKS
NEW YORK CITY  CLOUDY    47  42  83 SE5       29.97R
PHILADELPHIA   LGT RAIN  49  45  86 SE7       29.90F
PITTSBURGH     CLOUDY    46  43  89 W8G20     29.83R
ROANOKE        MOCLDY    55  38  52 W8        29.91R
RICHMOND       CLOUDY    50  47  89 SW6       29.90R FOG
RALEIGH        MOCLDY    50  47  89 S3        29.93R FOG

$$

ANZ530>537-170000-
MARINE OBSERVATIONS

STATION/POSITION TIME  TEMP    WIND        PRES
                       AIR SEA DIR/SP/G
                 (UTC) (F)     (DEG/KT/KT) (MB)
THOMAS PT LIGHT  2300   45 42  190/ 10/ 10 1013.2R
BALT KEY BRIDGE  2300   45      90/  4/  5 1011.7R
COVE POINT       2300   46     190/ 10/ 12 1011.6R
LEWISETTA        2300   48 43  210/  5/  5 1011.8R
SOLOMONS ISLAND  2300      44                N/A
PINEY POINT      2300          160/  5/  6   N/A

$$



USA.gov is the U.S. government's official web portal to all federal, state and local government web resources and services.